This demonstration page uses our WeatherBlox Daily Observations layout. Learn more.

Left ArrowRight Arrow

Hourly Observations for April 7, 2018

Temp ( °F °C ) Dew Point ( °F °C ) Humidity (%) Winds ( mph kmh ) Pressure ( in mb ) Visibility ( mi km ) Precip ( " mm )
12:59 am 00:59 Cloudy 64 17.8 46 7.8 52 52 SSW 13 20 29.81 1010 10 16 0.00 0.00
1:59 am 01:59 Cloudy 64 17.8 47 8.3 54 54 SW 10 17 29.81 1010 10 16 0.00 0.00
2:59 am 02:59 Cloudy with Light Rain 61 16.1 50 10 67 67 SW 14 22 29.81 1009 9 14 0.00 0.03
3:59 am 03:59 Cloudy with Light Rain 58 14.4 50 10 75 75 W 7 11 29.81 1009 9 14 0.01 0.25
4:59 am 04:59 Cloudy with Light Rain 56 13.3 51 10.6 84 84 W 9 15 29.81 1010 8 13 0.02 0.51
5:51 am 05:51 Cloudy with Rain 55 12.8 53 11.7 93 93 W 10 17 29.80 1009 2 3 0.14 3.56
5:59 am 05:59 Cloudy with Rain 55 12.8 53 11.7 93 93 W 10 17 29.81 1010 3 4 0.17 4.32
6:24 am 06:24 Cloudy with Light Rain 55 12.8 52 11.1 90 90 W 9 15 29.83 1010 4 6 0.08 2.03
6:34 am 06:34 Cloudy with Light Rain 55 12.8 52 11.1 90 90 W 12 19 29.83 1010 5 8 0.09 2.29
6:59 am 06:59 Cloudy with Light Rain 55 12.8 52 11.1 90 90 W 12 19 29.81 1010 6 10 0.13 3.30
7:59 am 07:59 Cloudy with Light Rain 54 12.2 52 11.1 93 93 W 7 11 29.82 1010 5 8 0.05 1.27
8:59 am 08:59 Cloudy with Light Rain 55 12.8 52 11.1 90 90 W 7 11 29.84 1011 9 14 0.01 0.25
9:10 am 09:10 Cloudy 55 12.8 52 11.1 90 90 WNW 8 13 29.85 1011 10 16 0.00 0.03
9:38 am 09:38 Cloudy with Light Rain 48 8.9 44 6.7 86 86 N 23 37 29.88 1012 6 10 0.01 0.25
9:59 am 09:59 Cloudy with Light Rain 48 8.9 43 6.1 83 83 N 21 33 29.89 1012 4 6 0.02 0.51
10:24 am 10:24 Cloudy with Light Rain 48 8.9 42 5.6 80 80 NNE 23 37 29.91 1013 5 8 0.01 0.25
10:59 am 10:59 Cloudy with Light Rain 48 8.9 41 5 77 77 NNE 21 33 29.92 1013 7 11 0.02 0.51
11:59 am 11:59 Cloudy with Light Rain 47 8.3 41 5 80 80 NNE 21 33 29.92 1013 10 16 0.00 0.03
12:16 pm 12:16 Cloudy with Light Rain 46 7.8 41 5 83 83 NNE 18 30 29.91 1013 7 11 0.01 0.25
12:41 pm 12:41 Cloudy with Light Rain 46 7.8 40 4.4 79 79 NNE 20 31 29.91 1013 7 11 0.01 0.25
12:59 pm 12:59 Cloudy with Light Rain 46 7.8 39 3.9 77 77 NNE 21 33 29.90 1013 7 11 0.01 0.25
1:59 pm 13:59 Cloudy with Light Rain 45 7.2 39 3.9 80 80 NE 17 28 29.88 1012 5 8 0.04 1.02
2:59 pm 14:59 Cloudy with Light Rain 44 6.7 35 1.7 71 71 NNE 18 30 29.88 1012 10 16 0.00 0.03
3:59 pm 15:59 Cloudy with Light Rain 43 6.1 37 2.8 80 80 NNE 18 30 29.88 1012 4 6 0.02 0.51
4:59 pm 16:59 Cloudy with Light Rain 42 5.6 36 2.2 79 79 NNE 21 33 29.87 1012 3 5 0.04 1.02
5:59 pm 17:59 Cloudy with Light Rain 42 5.6 37 2.8 82 82 NNE 18 30 29.88 1012 4 6 0.05 1.27
6:59 pm 18:59 Cloudy with Light Rain 41 5 37 2.8 86 86 NNE 22 35 29.88 1012 4 6 0.03 0.76
7:46 pm 19:46 Cloudy with Light Rain 41 5 35 1.7 79 79 NNE 22 35 29.88 1012 5 8 0.03 0.76
7:59 pm 19:59 Cloudy with Light Rain 41 5 35 1.7 79 79 NNE 17 28 29.88 1012 6 10 0.04 1.02
8:59 pm 20:59 Cloudy with Light Rain 41 5 34 1.1 76 76 NNE 22 35 29.89 1012 10 16 0.01 0.25
9:59 pm 21:59 Cloudy with Light Rain 40 4.4 34 1.1 79 79 N 21 33 29.88 1012 7 11 0.00 0.03
10:59 pm 22:59 Cloudy 40 4.4 34 1.1 79 79 N 21 33 29.87 1011 7 11 0.01 0.25
11:59 pm 23:59 Cloudy with Light Rain 40 4.4 34 1.1 79 79 N 25 41 29.84 1011 7 11 0.00 0.03

Powered by AerisWeather